sat.trackr.live / text

‹ back to catalog

STARLINK-37720

NORAD 69129 · 2026-110F

PAYLOAD ACTIVE UNKNOWN

§ Identity

Operator
Country
US
Launch date
2026-05-20
Launch site
AFWTR
Launch vehicle
Mass (kg)
RCS (m²)

Purposes: comms

External: N2YO · Heavens-Above · Gunter

§ Orbital elements

Epoch: 2026-09-19T23:29:20.592384Z

Period
93.91 min
Inclination
97.2850°
Eccentricity
0.0001360
Mean motion
15.33462315 rev/d
Perigee alt
464.6 km
Apogee alt
466.4 km
Semi-major
6,843.6 km
B*
7.6605e-4
RAAN
98.0009°
Arg perigee
68.7937°
Mean anomaly
291.3451°
Rev number
2,013

§ Raw data

STARLINK-377201 69129U 26110F   26262.97871056  .00024751  00000+0  76605-3 0  99932 69129  97.2850  98.0009 0001360  68.7937 291.3451 15.33462315 20130

JSON: /api/v1/satellites/69129 · /tle

For live sub-satellite position, see the globe view (requires WebGL).

§ Visibility from observer

Set your observer location to see the next 7 days of passes ≥ 10°. The values pass through the URL so the page stays shareable.

No JS? Fill the form by hand. The geolocation button needs JavaScript.